Benson, MN

12:01 PM CDT on March 30, 2017 (GMT -0500)
Benson Municipal

Weather History for KBBB - November, 2011

Change the Weather History Date:

Monday, November 21, 2011

  Actual Average Record
Temperature  
Mean Temperature 19 °F -  
Max Temperature 33 °F 36 °F 62 °F (1960)
Min Temperature 5 °F 19 °F -5 °F (1964)
Degree Days  
Heating Degree Days 46    
Moisture  
Dew Point 18 °F    
Average Humidity 89    
Maximum Humidity 93    
Minimum Humidity 75    
Precipitation  
Precipitation 0.00 in - - ()
Sea Level Pressure  
Sea Level Pressure 30.19 in    
Wind  
Wind Speed 7 mph (SSE)    
Max Wind Speed 12 mph    
Max Gust Speed 18 mph    
Visibility 10 miles    
Events      
Averages and records for this station are not official NWS values.
T = Trace of Precipitation, MM = Missing Value Source: NWS Daily Summary

Daily Weather History Graph

Daily Weather History Graph

Search for Another Location

Airport or City:

Trip Planner

Search our weather history database for the weather conditions in past years. The results will help you decide how hot, cold, wet, or windy it might be!

Date:

Astronomy

Nov. 21, 2011 Rise Set
Actual Time 7:28 AM CST 4:47 PM CST
Civil Twilight 6:56 AM CST 5:20 PM CST
Nautical Twilight 6:20 AM CST 5:56 PM CST
Astronomical Twilight 5:45 AM CST 6:31 PM CST
Moon 2:58 AM CST (11/21) 2:18 PM CST (11/21)
Length of Visible Light 10h 23m
Length of Day
9h 18m
Waning Crescent, 17% of the Moon is Illuminated
Nov 21
Waning Crescent
Nov 25
New
Dec 2
First Quarter
Dec 10
Full
Dec 17
Last Quarter

Hourly Weather History & Observations

Time (CST) Temp. Windchill Dew Point Humidity Pressure Visibility Wind Dir Wind Speed Gust Speed Precip Events Conditions
12:12 AM 5.0 °F -5.6 °F 3.2 °F 92% 30.25 in 10.0 mi SE 5.8 mph - N/A   Clear
12:53 AM 10.4 °F -1.5 °F 8.6 °F 92% 30.24 in 10.0 mi SSE 8.1 mph - N/A   Clear
1:12 AM 10.4 °F -0.4 °F 6.8 °F 85% 30.23 in 10.0 mi South 6.9 mph - N/A   Clear
1:32 AM 10.4 °F -1.5 °F 6.8 °F 85% 30.22 in 10.0 mi South 8.1 mph - N/A   Clear
1:52 AM 8.6 °F -2.6 °F 6.8 °F 92% 30.22 in 10.0 mi South 6.9 mph - N/A   Clear
2:33 AM 10.4 °F -0.4 °F 8.6 °F 92% 30.21 in 10.0 mi South 6.9 mph - N/A   Clear
2:52 AM 10.4 °F -1.5 °F 8.6 °F 92% 30.21 in 10.0 mi South 8.1 mph - N/A   Clear
3:12 AM 10.4 °F -0.4 °F 8.6 °F 92% 30.20 in 10.0 mi South 6.9 mph - N/A   Clear
3:33 AM 12.2 °F 2.9 °F 10.4 °F 92% 30.21 in 10.0 mi SSE 5.8 mph - N/A   Clear
3:52 AM 12.2 °F 4.3 °F 10.4 °F 92% 30.21 in 10.0 mi SE 4.6 mph - N/A   Clear
4:12 AM 12.2 °F 1.7 °F 10.4 °F 92% 30.21 in 10.0 mi South 6.9 mph - N/A   Clear
4:33 AM 12.2 °F 1.7 °F 10.4 °F 92% 30.20 in 10.0 mi South 6.9 mph - N/A   Clear
4:52 AM 10.4 °F -0.4 °F 8.6 °F 92% 30.21 in 10.0 mi South 6.9 mph - N/A   Clear
5:12 AM 10.4 °F 0.8 °F 8.6 °F 92% 30.21 in 10.0 mi South 5.8 mph - N/A   Clear
5:33 AM 10.4 °F 0.8 °F 8.6 °F 92% 30.21 in 10.0 mi South 5.8 mph - N/A   Clear
5:52 AM 10.4 °F -0.4 °F 8.6 °F 92% 30.20 in 10.0 mi South 6.9 mph - N/A   Clear
6:13 AM 12.2 °F 1.7 °F 10.4 °F 92% 30.20 in 10.0 mi South 6.9 mph - N/A   Clear
6:33 AM 12.2 °F 1.7 °F 10.4 °F 92% 30.20 in 10.0 mi SSE 6.9 mph - N/A   Clear
6:52 AM 12.2 °F 2.9 °F 10.4 °F 92% 30.20 in 10.0 mi South 5.8 mph - N/A   Clear
7:13 AM 12.2 °F 0.7 °F 10.4 °F 92% 30.20 in 10.0 mi South 8.1 mph - N/A   Clear
7:32 AM 14.0 °F 3.9 °F 12.2 °F 93% 30.21 in 10.0 mi South 6.9 mph - N/A   Clear
7:52 AM 14.0 °F 5.1 °F 12.2 °F 93% 30.21 in 10.0 mi South 5.8 mph - N/A   Clear
8:13 AM 15.8 °F 6.1 °F 12.2 °F 86% 30.22 in 10.0 mi South 6.9 mph - N/A   Clear
8:32 AM 15.8 °F 7.2 °F 12.2 °F 86% 30.22 in 10.0 mi South 5.8 mph - N/A   Clear
8:52 AM 15.8 °F 7.2 °F 12.2 °F 86% 30.22 in 10.0 mi South 5.8 mph - N/A   Clear
9:13 AM 17.6 °F 9.3 °F 15.8 °F 93% 30.22 in 10.0 mi South 5.8 mph - N/A   Clear
9:33 AM 17.6 °F 9.3 °F 15.8 °F 93% 30.22 in 10.0 mi South 5.8 mph - N/A   Clear
9:53 AM 17.6 °F 10.7 °F 15.8 °F 93% 30.23 in 10.0 mi SSE 4.6 mph - N/A   Clear
10:13 AM 19.4 °F 9.5 °F 17.6 °F 93% 30.22 in 10.0 mi South 8.1 mph - N/A   Clear
10:32 AM 21.2 °F 11.7 °F 17.6 °F 86% 30.23 in 10.0 mi South 8.1 mph - N/A   Clear
10:53 AM 21.2 °F 12.6 °F 19.4 °F 93% 30.22 in 10.0 mi South 6.9 mph - N/A   Clear
11:12 AM 24.8 °F 16.1 °F 19.4 °F 80% 30.21 in 10.0 mi South 8.1 mph - N/A   Clear
11:32 AM 23.0 °F 14.7 °F 19.4 °F 86% 30.20 in 10.0 mi South 6.9 mph - N/A   Clear
11:53 AM 23.0 °F 13.9 °F 19.4 °F 86% 30.19 in 10.0 mi South 8.1 mph - N/A   Clear
12:33 PM 26.6 °F 17.5 °F 21.2 °F 80% 30.18 in 10.0 mi South 9.2 mph - N/A   Scattered Clouds
1:12 PM 28.4 °F 19.7 °F 24.8 °F 86% 30.17 in 10.0 mi South 9.2 mph - N/A   Overcast
1:33 PM 28.4 °F 20.4 °F 24.8 °F 86% 30.16 in 10.0 mi South 8.1 mph - N/A   Mostly Cloudy
1:52 PM 30.2 °F 23.4 °F 24.8 °F 80% 30.16 in 10.0 mi South 6.9 mph - N/A   Mostly Cloudy
2:13 PM 30.2 °F 23.4 °F 26.6 °F 86% 30.16 in 10.0 mi South 6.9 mph - N/A   Mostly Cloudy
2:33 PM 32.0 °F 25.6 °F 26.6 °F 80% 30.15 in 10.0 mi South 6.9 mph - N/A   Scattered Clouds
2:52 PM 33.8 °F 28.6 °F 26.6 °F 75% 30.15 in 10.0 mi South 5.8 mph - N/A   Clear
3:12 PM 32.0 °F 25.6 °F 26.6 °F 80% 30.15 in 10.0 mi SSE 6.9 mph - N/A   Clear
3:32 PM 33.8 °F 26.4 °F 26.6 °F 75% 30.15 in 10.0 mi South 9.2 mph - N/A   Scattered Clouds
3:53 PM 32.0 °F 25.6 °F 26.6 °F 80% 30.15 in 10.0 mi SE 6.9 mph - N/A   Scattered Clouds
4:12 PM 30.2 °F 24.3 °F 26.6 °F 86% 30.14 in 10.0 mi SE 5.8 mph - N/A   Scattered Clouds
4:32 PM 30.2 °F 24.3 °F 26.6 °F 86% 30.14 in 10.0 mi SE 5.8 mph - N/A   Scattered Clouds
4:53 PM 28.4 °F 22.2 °F 24.8 °F 86% 30.14 in 10.0 mi SE 5.8 mph - N/A   Scattered Clouds
5:12 PM 26.6 °F 20.0 °F 24.8 °F 93% 30.14 in 10.0 mi SE 5.8 mph - N/A   Clear
5:52 PM 26.6 °F 20.0 °F 24.8 °F 93% 30.14 in 10.0 mi SE 5.8 mph - N/A   Scattered Clouds
6:12 PM 26.6 °F 18.2 °F 24.8 °F 93% 30.14 in 10.0 mi SE 8.1 mph - N/A   Scattered Clouds
6:33 PM 30.2 °F 21.9 °F 26.6 °F 86% 30.14 in 10.0 mi SSE 9.2 mph 18.4 mph N/A   Clear
6:52 PM 30.2 °F 21.3 °F 28.4 °F 93% 30.14 in 7.0 mi SSE 10.4 mph - N/A   Clear
7:12 PM 28.4 °F 19.1 °F 26.6 °F 93% 30.16 in 10.0 mi South 10.4 mph - N/A   Clear
7:33 PM 28.4 °F 19.7 °F 26.6 °F 93% 30.15 in 7.0 mi South 9.2 mph - N/A   Clear
7:53 PM 28.4 °F 18.5 °F 26.6 °F 93% 30.16 in 7.0 mi South 11.5 mph - N/A   Scattered Clouds
8:12 PM 30.2 °F 22.6 °F 28.4 °F 93% 30.16 in 7.0 mi South 8.1 mph - N/A   Mostly Cloudy
8:33 PM 30.2 °F 22.6 °F 28.4 °F 93% 30.15 in 7.0 mi South 8.1 mph - N/A   Overcast
8:52 PM 32.0 °F 25.6 °F 28.4 °F 87% 30.14 in 7.0 mi South 6.9 mph - N/A   Overcast
9:12 PM 32.0 °F 24.8 °F 30.2 °F 93% 30.13 in 7.0 mi South 8.1 mph - N/A   Overcast
9:33 PM 33.8 °F 27.7 °F 30.2 °F 87% 30.14 in 7.0 mi South 6.9 mph - N/A   Overcast
9:52 PM 33.8 °F 27.0 °F 30.2 °F 87% 30.14 in 7.0 mi South 8.1 mph - N/A   Overcast
10:12 PM 33.8 °F 27.7 °F 30.2 °F 87% 30.14 in 7.0 mi SE 6.9 mph - N/A   Overcast
10:33 PM 33.8 °F 27.7 °F 30.2 °F 87% 30.14 in 7.0 mi SE 6.9 mph - N/A   Overcast
10:52 PM 33.8 °F 27.7 °F 30.2 °F 87% 30.14 in 7.0 mi SE 6.9 mph - N/A   Overcast
11:12 PM 33.8 °F 27.0 °F 30.2 °F 87% 30.13 in 7.0 mi SE 8.1 mph - N/A   Overcast
11:33 PM 33.8 °F 27.0 °F 30.2 °F 87% 30.14 in 7.0 mi SE 8.1 mph - N/A   Overcast
11:52 PM 33.8 °F 27.7 °F 30.2 °F 87% 30.14 in 5.0 mi SE 6.9 mph - N/A   Overcast